Location: Kawakawa
(35.3830°S, 174.0670°E)
Time: 01:44:24
(UTC+12:00)

Cosmos 1633 Rocket - Pass Details

Date: 15 August 2020
Orbit: 606 x 624 km, 82.5° (Epoch: 19 September)

Event Time Altitude Azimuth Distance (km) Brightness Sun altitude
Rises 19:48:40 0° 188° (S) 2,930 6.6 -24.3°
Reaches altitude 10° 19:50:54 10° 188° (S) 2,019 5.8 -24.7°
Enters shadow 19:54:34 59° 198° (SSW) 732 3.4 -25.5°
